This is the latest recevied weather packets stored in our database for station/object SY3EBK-13. If no packets are shown the sender has not sent any weather packets the latest 10 day(s).
| Time | Temp. | Humidity | Pressure | Rain* | Wind** | Luminosity | Snow |
|---|---|---|---|---|---|---|---|
| 1788357556 | 30.56° C | 33% | 915.8 hPa | - | 0 m/s | - | - |
| 1788356655 | 30.56° C | 32% | 915.9 hPa | - | 0 m/s | - | - |
| 1788355755 | 31.11° C | 31% | 915.8 hPa | - | 0 m/s | - | - |
| 1788354855 | 31.11° C | 31% | 916.1 hPa | - | 0 m/s | - | - |
| 1788353955 | 31.11° C | 31% | 916.2 hPa | - | 0 m/s | - | - |
| 1788353055 | 31.11° C | 31% | 916.3 hPa | - | 0 m/s | - | - |
| 1788352155 | 31.11° C | 31% | 916.4 hPa | - | 0 m/s | - | - |
| 1788351255 | 31.11° C | 31% | 916.5 hPa | - | 0 m/s | - | - |
| 1788348555 | 31.11° C | 31% | 916.7 hPa | - | 0 m/s | - | - |
| 1788347656 | 30.56° C | 31% | 916.9 hPa | - | 0 m/s | - | - |
| 1788346755 | 30.56° C | 32% | 917 hPa | - | 0 m/s | - | - |
| 1788345855 | 30.56° C | 32% | 917.2 hPa | - | 0 m/s | - | - |
| 1788344955 | 30.56° C | 32% | 917.4 hPa | - | 0 m/s | - | - |
| 1788344055 | 30° C | 33% | 917.4 hPa | - | 0 m/s | - | - |
| 1788343156 | 30° C | 33% | 917.5 hPa | - | 0 m/s | - | - |
| 1788342256 | 30.56° C | 31% | 917.5 hPa | - | 0 m/s | - | - |
| 1788341355 | 31.67° C | 30% | 917.6 hPa | - | 0 m/s | - | - |
| 1788339556 | 29.44° C | 34% | 917.6 hPa | - | 0 m/s | - | - |
| 1788338656 | 28.89° C | 35% | 917.5 hPa | - | 0 m/s | - | - |
| 1788337755 | 28.33° C | 35% | 917.5 hPa | - | 0 m/s | - | - |
| 1788336857 | 28.33° C | 36% | 917.6 hPa | - | 0 m/s | - | - |
| 1788335956 | 27.78° C | 36% | 917.5 hPa | - | 0 m/s | - | - |
| 1788335056 | 27.78° C | 37% | 917.5 hPa | - | 0 m/s | - | - |
| 1788334155 | 27.22° C | 38% | 917.5 hPa | - | 0 m/s | - | - |
| 1788333255 | 27.22° C | 38% | 917.4 hPa | - | 0 m/s | - | - |
* Rain since midnight (hover to see other rain measurements)
** Current wind speed in m/s (hover to see current wind gust speed)